Observations for Trim Market St
| Time | AQI | Temp °C | Hum % | Pres Pa | CO μg/m³ | H₂S μg/m³ | NO μg/m³ | NO₂ μg/m³ | O₃ μg/m³ | SO₂ μg/m³ | PM1 μg/m³ | PM2.5 μg/m³ | PM10 μg/m³ |
|---|---|---|---|---|---|---|---|---|---|---|---|---|---|
| Tuesday 11 August 2026 | |||||||||||||
| 08:02 | 1 | 21.6 | 60 | 57,657 | 0.59 | 0 | 3.21 | 11.64 | 2.9 | 0 | 0.71 | 3.01 | 4.11 |
| 08:00 | 1 | 21.4 | 61 | 57,612 | 0.6 | 0 | 3.18 | 9.14 | 0 | 0 | 1.43 | 3.47 | 4.81 |
| 07:59 | 1 | 21.2 | 62 | 57,579 | 0.61 | 0 | 3.18 | 11.46 | 2.17 | 0 | 1.43 | 2.95 | 4.15 |
| 07:55 | 1 | 20.7 | 63 | 57,500 | 0.6 | 0 | 3.19 | 12.1 | 7.26 | 0 | 0.71 | 2.39 | 4.19 |
| 07:52 | 1 | 20.2 | 64 | 57,356 | 0.62 | 0 | 3.07 | 11.87 | 9.28 | 0 | 1.43 | 3.32 | 4.89 |
| 07:50 | 1 | 19.9 | 65 | 57,250 | 0.63 | 0 | 2.91 | 12.84 | 14.4 | 0 | 1.43 | 3.29 | 5.56 |
| 07:48 | 1 | 19.6 | 66 | 57,123 | 0.61 | 0 | 2.48 | 12 | 8.65 | 0 | 1.43 | 3.74 | 5.58 |
| 07:40 | 1 | 18.3 | 69 | 56,524 | 0.61 | 0 | 2.27 | 13.89 | 24.32 | 0 | 1.43 | 2.63 | 4.35 |
| 07:39 | 2 | 18.2 | 69 | 56,452 | 0.63 | 0 | 2.25 | 14.68 | 20.88 | 0 | 0 | 2.13 | 4.36 |
| 07:38 | 1 | 18.1 | 69 | 56,341 | 0.65 | 0 | 2.19 | 11.75 | 10.49 | 0 | 2.14 | 3.58 | 6.27 |
| 07:37 | 1 | 18 | 70 | 56,165 | 0.7 | 0 | 2.22 | 13.93 | 18.79 | 0 | 2.14 | 4.53 | 6.9 |
| 07:36 | 2 | 17.9 | 70 | 55,981 | 0.78 | 0 | 2.76 | 16.33 | 15.65 | 0 | 2.14 | 4.03 | 6.28 |
| 07:35 | 1 | 17.8 | 70 | 55,723 | 0.66 | 0 | 2.84 | 15.7 | 11.52 | 0 | 0.71 | 2.55 | 4.4 |
| 07:34 | 2 | 17.7 | 71 | 55,370 | 0.68 | 0 | 2.57 | 22.99 | 14.84 | 0 | 0.71 | 2.05 | 3.8 |
| 07:33 | 2 | 17.6 | 71 | 54,949 | 0.68 | 0 | 2.23 | 20.47 | 7.5 | 0 | 2.14 | 3.48 | 6.29 |
| 07:32 | 2 | 17.5 | 72 | 54,462 | 0.66 | 0 | 2.11 | 17.76 | 21.34 | 0 | 0.71 | 2.01 | 3.83 |
| 07:31 | 2 | 17.3 | 72 | 53,950 | 0.66 | 0 | 2.12 | 19.48 | 22.08 | 0 | 2.14 | 3.45 | 5.68 |
| 07:30 | 2 | 17.2 | 72 | 53,425 | 0.65 | 0 | 2.14 | 27.42 | 23.39 | 0 | 0 | 2.95 | 5.08 |
| 07:29 | 2 | 17 | 72 | 52,960 | 0.65 | 0 | 2.19 | 25.63 | 24.53 | 0 | 0.71 | 1.98 | 5.08 |
| 07:28 | 2 | 16.9 | 73 | 52,381 | 0.66 | 0 | 2.15 | 25.36 | 23.29 | 0 | 1.43 | 3.41 | 5.7 |